Simultaneous Nadir Overpasses (SNOs) Predictions

Prediction of SNOs between GOES-15 and NPP Satellite Orbit:

Table of predicted SNOs for the next 14.0 days since TLE Epoch: 7/2/2016
Index Date Time (GOES-15) GOES-15 Lat,Lon NPP Lat,Lon Distance(km) Time Diff (sec)
1 07/02/2016 10:28:07 -0.10,-135.53 -0.18,-135.25 32.94 80
2 07/04/2016 22:28:38 0.11,-135.52 -0.02,-136.01 56.73 80
3 07/05/2016 22:12:33 0.11,-135.52 1.02,-131.49 459.62 80
4 07/07/2016 10:31:40 -0.13,-135.52 0.14,-136.76 141.50 80
5 07/08/2016 10:15:35 -0.12,-135.51 -0.84,-132.22 374.67 80
6 07/09/2016 22:34:51 0.14,-135.50 -0.33,-137.53 231.86 80
7 07/10/2016 22:18:47 0.13,-135.49 0.71,-133.00 284.11 80
8 07/12/2016 10:37:54 -0.15,-135.48 0.46,-138.27 317.79 80
9 07/13/2016 10:21:49
